| time (UTC) | temp F | wind direction | speed MPH | gust MPH | rain 1hr in | rain 24hr in | rain mn in | humidity % | barometer mb |
| 20260503214833 | 78 | 34 | 3.0 | 3.0 | 0.00 | 0.00 | 0.00 | 39 | 1012.0 |
| 20260503214330 | 78 | 318 | 4.0 | 4.0 | 0.00 | 0.00 | 0.00 | 40 | 1012.3 |
| 20260503213827 | 78 | 278 | 4.0 | 4.0 | 0.00 | 0.00 | 0.00 | 38 | 1012.3 |
| 20260503213325 | 78 | 24 | 3.0 | 3.0 | 0.00 | 0.00 | 0.00 | 38 | 1012.3 |
| 20260503212822 | 77 | 277 | 4.0 | 4.0 | 0.00 | 0.00 | 0.00 | 43 | 1012.0 |
| 20260503212320 | 78 | 24 | 2.0 | 2.0 | 0.00 | 0.00 | 0.00 | 40 | 1012.3 |
| 20260503211817 | 79 | 49 | 3.0 | 4.0 | 0.00 | 0.00 | 0.00 | 38 | 1012.7 |
| 20260503211314 | 78 | 48 | 3.0 | 3.0 | 0.00 | 0.00 | 0.00 | 42 | 1012.3 |
| 20260503210813 | 78 | 65 | 2.0 | 2.0 | 0.00 | 0.00 | 0.00 | 39 | 1012.3 |
| 20260503210311 | 78 | 78 | 3.0 | 3.0 | 0.00 | 0.00 | 0.00 | 39 | 1012.7 |
| 20260503205806 | 79 | 48 | 3.0 | 3.0 | 0.00 | 0.00 | 0.00 | 40 | 1012.7 |
| 20260503205304 | 78 | 34 | 2.0 | 2.0 | 0.00 | 0.00 | 0.00 | 41 | 1012.7 |
| 20260503204759 | 78 | 6 | 3.0 | 3.0 | 0.00 | 0.00 | 0.00 | 40 | 1012.7 |
| 20260503204257 | 77 | 312 | 2.0 | 2.0 | 0.00 | 0.00 | 0.00 | 42 | 1012.7 |
| 20260503203754 | 76 | 343 | 3.0 | 3.0 | 0.00 | 0.00 | 0.00 | 44 | 1012.7 |
| 20260503203251 | 76 | 78 | 2.0 | 2.0 | 0.00 | 0.00 | 0.00 | 42 | 1013.0 |
| 20260503202748 | 75 | 329 | 3.0 | 4.0 | 0.00 | 0.00 | 0.00 | 46 | 1013.0 |
| 20260503202246 | 77 | 336 | 1.0 | 1.0 | 0.00 | 0.00 | 0.00 | 45 | 1013.0 |
| 20260503201744 | 77 | 277 | 4.0 | 4.0 | 0.00 | 0.00 | 0.00 | 45 | 1013.0 |
| 20260503201241 | 76 | 274 | 0.0 | 0.0 | 0.00 | 0.00 | 0.00 | 43 | 1013.0 |
| 20260503200737 | 75 | 318 | 5.0 | 5.0 | 0.00 | 0.00 | 0.00 | 47 | 1013.0 |
| 20260503200234 | 74 | 19 | 4.0 | 4.0 | 0.00 | 0.00 | 0.00 | 47 | 1013.3 |
| 20260503195731 | 74 | 294 | 5.0 | 6.0 | 0.00 | 0.00 | 0.00 | 48 | 1013.3 |
| 20260503195228 | 74 | 327 | 4.0 | 4.0 | 0.00 | 0.00 | 0.00 | 48 | 1013.3 |
| 20260503194726 | 74 | 310 | 7.0 | 7.0 | 0.00 | 0.00 | 0.00 | 48 | 1013.3 |
| 20260503194221 | 75 | 271 | 5.0 | 6.0 | 0.00 | 0.00 | 0.00 | 48 | 1013.3 |
| 20260503193717 | 74 | 30 | 2.0 | 2.0 | 0.00 | 0.00 | 0.00 | 50 | 1013.7 |
| 20260503193213 | 75 | 275 | 2.0 | 2.0 | 0.00 | 0.00 | 0.00 | 48 | 1013.3 |
| 20260503192709 | 75 | 82 | 5.0 | 6.0 | 0.00 | 0.00 | 0.00 | 46 | 1013.7 |
| 20260503192204 | 74 | 258 | 3.0 | 3.0 | 0.00 | 0.00 | 0.00 | 49 | 1013.7 |
| 20260503191701 | 74 | 40 | 6.0 | 6.0 | 0.00 | 0.00 | 0.00 | 48 | 1013.3 |
| 20260503191158 | 73 | 24 | 2.0 | 2.0 | 0.00 | 0.00 | 0.00 | 52 | 1013.7 |
| 20260503190655 | 74 | 300 | 4.0 | 5.0 | 0.00 | 0.00 | 0.00 | 52 | 1014.0 |
| 20260503190152 | 74 | 299 | 4.0 | 4.0 | 0.00 | 0.00 | 0.00 | 51 | 1014.0 |
| 20260503185649 | 73 | 72 | 0.0 | 0.0 | 0.00 | 0.00 | 0.00 | 49 | 1013.7 |
| 20260503185144 | 72 | 30 | 2.0 | 2.0 | 0.00 | 0.00 | 0.00 | 54 | 1014.0 |
| 20260503184639 | 74 | 29 | 6.0 | 6.0 | 0.00 | 0.00 | 0.00 | 49 | 1014.0 |
| 20260503184136 | 73 | 60 | 3.0 | 4.0 | 0.00 | 0.00 | 0.00 | 49 | 1014.0 |
| 20260503183632 | 71 | 34 | 5.0 | 5.0 | 0.00 | 0.00 | 0.00 | 53 | 1014.0 |
| 20260503183130 | 71 | 355 | 8.0 | 9.0 | 0.00 | 0.00 | 0.00 | 53 | 1014.0 |
| 20260503182628 | 72 | 348 | 3.0 | 3.0 | 0.00 | 0.00 | 0.00 | 52 | 1014.0 |
| 20260503182126 | 71 | 82 | 2.0 | 2.0 | 0.00 | 0.00 | 0.00 | 49 | 1014.4 |
| 20260503181623 | 71 | 328 | 3.0 | 3.0 | 0.00 | 0.00 | 0.00 | 53 | 1014.4 |
| 20260503181120 | 71 | 344 | 3.0 | 3.0 | 0.00 | 0.00 | 0.00 | 53 | 1014.4 |
| 20260503180617 | 70 | 29 | 2.0 | 2.0 | 0.00 | 0.00 | 0.00 | 54 | 1014.4 |
| 20260503180115 | 70 | 324 | 5.0 | 5.0 | 0.00 | 0.00 | 0.00 | 54 | 1014.4 |
| 20260503175611 | 71 | 34 | 1.0 | 1.0 | 0.00 | 0.00 | 0.00 | 53 | 1014.4 |
| 20260503175108 | 70 | 23 | 2.0 | 2.0 | 0.00 | 0.00 | 0.00 | 52 | 1014.4 |
| 20260503174605 | 68 | 2 | 3.0 | 4.0 | 0.00 | 0.00 | 0.00 | 55 | 1014.4 |
| 20260503174102 | 69 | 72 | 2.0 | 2.0 | 0.00 | 0.00 | 0.00 | 54 | 1014.4 |
| 20260503173557 | 68 | 311 | 4.0 | 5.0 | 0.00 | 0.00 | 0.00 | 57 | 1014.4 |
| 20260503173054 | 69 | 30 | 5.0 | 6.0 | 0.00 | 0.00 | 0.00 | 56 | 1014.7 |
| 20260503172551 | 68 | 328 | 2.0 | 2.0 | 0.00 | 0.00 | 0.00 | 58 | 1014.4 |
| 20260503172048 | 67 | 336 | 3.0 | 4.0 | 0.00 | 0.00 | 0.00 | 58 | 1014.7 |
| 20260503171544 | 67 | 19 | 4.0 | 4.0 | 0.00 | 0.00 | 0.00 | 59 | 1014.7 |
| 20260503171042 | 68 | 302 | 4.0 | 4.0 | 0.00 | 0.00 | 0.00 | 59 | 1014.7 |
| 20260503170538 | 69 | 72 | 3.0 | 4.0 | 0.00 | 0.00 | 0.00 | 56 | 1014.7 |
| 20260503150924 | 63 | 318 | 2.0 | 2.0 | 0.00 | 0.00 | 0.00 | 67 | 1014.7 |
| 20260503150421 | 62 | 96 | 1.0 | 1.0 | 0.00 | 0.00 | 0.00 | 66 | 1014.7 |
| 20260503131314 | 49 | 186 | 0.0 | 0.0 | 0.00 | 0.00 | 0.00 | 88 | 1014.4 |
| 20260503130812 | 49 | 186 | 0.0 | 0.0 | 0.00 | 0.00 | 0.00 | 88 | 1014.4 |
| 20260503130309 | 49 | 186 | 0.0 | 0.0 | 0.00 | 0.00 | 0.00 | 87 | 1014.7 |
| 20260503110702 | 51 | 186 | 0.0 | 0.0 | 0.00 | 0.00 | 0.00 | 83 | 1014.7 |
| 20260503110200 | 51 | 186 | 0.0 | 0.0 | 0.00 | 0.00 | 0.00 | 84 | 1014.7 |
| 20260503100126 | 53 | 186 | 0.0 | 0.0 | 0.00 | 0.00 | 0.00 | 80 | 1014.7 |
| 20260503081510 | 58 | 186 | 0.0 | 0.0 | 0.00 | 0.00 | 0.00 | 67 | 1015.0 |
| 20260503081007 | 57 | 186 | 0.0 | 0.0 | 0.00 | 0.00 | 0.00 | 67 | 1014.7 |
| 20260503080503 | 56 | 186 | 0.0 | 0.0 | 0.00 | 0.00 | 0.00 | 72 | 1014.7 |
| 20260503072940 | 58 | 60 | 0.0 | 0.0 | 0.00 | 0.00 | 0.00 | 68 | 1015.0 |
| 20260503072437 | 58 | 60 | 0.0 | 0.0 | 0.00 | 0.00 | 0.00 | 69 | 1015.0 |
| 20260503071934 | 58 | 60 | 0.0 | 0.0 | 0.00 | 0.00 | 0.00 | 69 | 1014.7 |
| 20260503071431 | 58 | 60 | 0.0 | 0.0 | 0.00 | 0.00 | 0.00 | 69 | 1014.7 |
| 20260503070927 | 57 | 60 | 0.0 | 0.0 | 0.00 | 0.00 | 0.00 | 71 | 1015.0 |
| 20260503070424 | 57 | 60 | 0.0 | 0.0 | 0.00 | 0.00 | 0.00 | 71 | 1014.7 |
| 20260503054832 | 58 | 60 | 0.0 | 0.0 | 0.00 | 0.00 | 0.00 | 74 | 1014.7 |
| 20260503054328 | 58 | 60 | 0.0 | 0.0 | 0.00 | 0.00 | 0.00 | 74 | 1014.7 |
| 20260503053826 | 59 | 60 | 0.0 | 0.0 | 0.00 | 0.00 | 0.00 | 73 | 1014.7 |
| 20260503053324 | 60 | 60 | 0.0 | 0.0 | 0.00 | 0.00 | 0.00 | 72 | 1014.7 |
| 20260503052820 | 60 | 60 | 0.0 | 0.0 | 0.00 | 0.00 | 0.00 | 70 | 1014.7 |
| 20260503052317 | 61 | 60 | 0.0 | 0.0 | 0.00 | 0.00 | 0.00 | 69 | 1014.7 |
| 20260503051813 | 62 | 60 | 0.0 | 0.0 | 0.00 | 0.00 | 0.00 | 68 | 1014.7 |
| 20260503051309 | 62 | 60 | 2.0 | 2.0 | 0.00 | 0.00 | 0.00 | 68 | 1014.7 |
| 20260503050806 | 62 | 60 | 0.0 | 0.0 | 0.00 | 0.00 | 0.00 | 67 | 1014.4 |
| 20260503050303 | 62 | 60 | 0.0 | 0.0 | 0.00 | 0.00 | 0.00 | 66 | 1014.4 |
| 20260503045801 | 62 | 60 | 0.0 | 0.0 | 0.00 | 0.00 | 0.00 | 65 | 1014.4 |
| 20260503045258 | 63 | 60 | 0.0 | 0.0 | 0.00 | 0.00 | 0.00 | 66 | 1014.4 |
| 20260503044754 | 63 | 60 | 2.0 | 2.0 | 0.00 | 0.00 | 0.00 | 65 | 1014.4 |
| 20260503044251 | 63 | 60 | 0.0 | 0.0 | 0.00 | 0.00 | 0.00 | 65 | 1014.4 |
| 20260503043748 | 63 | 60 | 0.0 | 0.0 | 0.00 | 0.00 | 0.00 | 64 | 1014.4 |
| 20260503043245 | 63 | 32 | 0.0 | 0.0 | 0.00 | 0.00 | 0.00 | 62 | 1014.4 |
| 20260503042741 | 63 | 32 | 2.0 | 2.0 | 0.00 | 0.00 | 0.00 | 62 | 1014.0 |
| 20260503042238 | 64 | 32 | 1.0 | 1.0 | 0.00 | 0.00 | 0.00 | 61 | 1014.0 |
| 20260503041734 | 64 | 32 | 2.0 | 2.0 | 0.00 | 0.00 | 0.00 | 60 | 1014.0 |
| 20260503041232 | 65 | 32 | 2.0 | 2.0 | 0.00 | 0.00 | 0.00 | 58 | 1014.4 |
| 20260503040729 | 65 | 36 | 0.0 | 0.0 | 0.00 | 0.00 | 0.00 | 59 | 1014.0 |
| 20260503040227 | 65 | 36 | 0.0 | 0.0 | 0.00 | 0.00 | 0.00 | 58 | 1014.0 |
| 20260503035723 | 66 | 24 | 0.0 | 0.0 | 0.00 | 0.00 | 0.00 | 56 | 1013.7 |
| 20260503035221 | 67 | 54 | 3.0 | 3.0 | 0.00 | 0.00 | 0.00 | 54 | 1013.7 |
| 20260503034718 | 67 | 8 | 2.0 | 2.0 | 0.00 | 0.00 | 0.00 | 52 | 1014.0 |
| 20260503034215 | 68 | 70 | 2.0 | 2.0 | 0.00 | 0.00 | 0.00 | 50 | 1013.3 |
| 20260503033712 | 69 | 60 | 6.0 | 6.0 | 0.00 | 0.00 | 0.00 | 48 | 1013.7 |
| 20260503033210 | 69 | 29 | 5.0 | 6.0 | 0.00 | 0.00 | 0.00 | 48 | 1013.3 |
| 20260503032708 | 69 | 36 | 3.0 | 3.0 | 0.00 | 0.00 | 0.00 | 49 | 1013.3 |
| 20260503032206 | 69 | 48 | 3.0 | 3.0 | 0.00 | 0.00 | 0.00 | 48 | 1013.3 |
| 20260503031703 | 69 | 54 | 7.0 | 7.0 | 0.00 | 0.00 | 0.00 | 49 | 1013.3 |
| 20260503031201 | 69 | 6 | 3.0 | 3.0 | 0.00 | 0.00 | 0.00 | 50 | 1013.3 |
| 20260503030656 | 69 | 355 | 7.0 | 7.0 | 0.00 | 0.00 | 0.00 | 50 | 1013.3 |
| 20260503030153 | 69 | 303 | 7.0 | 7.0 | 0.00 | 0.00 | 0.00 | 50 | 1013.0 |
| 20260503025650 | 69 | 318 | 8.0 | 8.0 | 0.00 | 0.00 | 0.00 | 49 | 1013.0 |
| 20260503025148 | 69 | 280 | 5.0 | 6.0 | 0.00 | 0.00 | 0.00 | 49 | 1013.0 |
| 20260503024644 | 69 | 6 | 5.0 | 6.0 | 0.00 | 0.00 | 0.00 | 48 | 1013.0 |
| 20260503024141 | 69 | 300 | 11.0 | 12.0 | 0.00 | 0.00 | 0.00 | 48 | 1013.3 |
| 20260503023633 | 70 | 314 | 4.0 | 4.0 | 0.00 | 0.00 | 0.00 | 48 | 1013.0 |
| 20260503023130 | 70 | 23 | 5.0 | 6.0 | 0.00 | 0.00 | 0.00 | 47 | 1013.0 |
| 20260503022626 | 70 | 100 | 5.0 | 5.0 | 0.00 | 0.00 | 0.00 | 48 | 1013.0 |
| 20260503022120 | 70 | 60 | 6.0 | 7.0 | 0.00 | 0.00 | 0.00 | 47 | 1013.0 |
| 20260503021618 | 70 | 316 | 5.0 | 6.0 | 0.00 | 0.00 | 0.00 | 47 | 1013.0 |
| 20260503021114 | 70 | 328 | 2.0 | 2.0 | 0.00 | 0.00 | 0.00 | 47 | 1013.0 |
| 20260503020611 | 71 | 6 | 5.0 | 6.0 | 0.00 | 0.00 | 0.00 | 46 | 1013.0 |
| 20260503020109 | 71 | 324 | 5.0 | 5.0 | 0.00 | 0.00 | 0.00 | 47 | 1013.0 |
| 20260503015605 | 71 | 329 | 4.0 | 5.0 | 0.00 | 0.00 | 0.00 | 47 | 1013.0 |
| 20260503015103 | 71 | 30 | 5.0 | 6.0 | 0.00 | 0.00 | 0.00 | 47 | 1013.0 |
| 20260503014558 | 71 | 343 | 5.0 | 6.0 | 0.00 | 0.00 | 0.00 | 47 | 1013.0 |
| 20260503014056 | 73 | 35 | 2.0 | 2.0 | 0.00 | 0.00 | 0.00 | 46 | 1013.0 |
| 20260503013553 | 72 | 0 | 0.0 | 0.0 | 0.00 | 0.00 | 0.00 | 48 | 1013.0 |
| 20260503013051 | 73 | 12 | 2.0 | 2.0 | 0.00 | 0.00 | 0.00 | 47 | 1013.3 |
| 20260503012548 | 73 | 49 | 2.0 | 2.0 | 0.00 | 0.00 | 0.00 | 47 | 1013.0 |
| 20260503012045 | 73 | 93 | 0.0 | 0.0 | 0.00 | 0.00 | 0.00 | 47 | 1013.0 |
| 20260503011541 | 73 | 66 | 5.0 | 5.0 | 0.00 | 0.00 | 0.00 | 47 | 1013.3 |
| 20260503011039 | 73 | 54 | 2.0 | 2.0 | 0.00 | 0.00 | 0.00 | 47 | 1013.0 |
| 20260503010534 | 73 | 294 | 4.0 | 4.0 | 0.00 | 0.00 | 0.00 | 47 | 1013.3 |
| 20260503010032 | 73 | 318 | 2.0 | 2.0 | 0.00 | 0.00 | 0.00 | 47 | 1013.3 |
| 20260503005529 | 74 | 90 | 4.0 | 4.0 | 0.00 | 0.00 | 0.00 | 46 | 1013.3 |
| 20260503005027 | 73 | 331 | 5.0 | 5.0 | 0.00 | 0.00 | 0.00 | 47 | 1013.3 |
| 20260503004522 | 73 | 18 | 3.0 | 4.0 | 0.00 | 0.00 | 0.00 | 47 | 1013.7 |
| 20260503004021 | 75 | 18 | 5.0 | 5.0 | 0.00 | 0.00 | 0.00 | 45 | 1013.3 |
| 20260503003517 | 74 | 72 | 2.0 | 2.0 | 0.00 | 0.00 | 0.00 | 46 | 1013.7 |
| 20260503003014 | 75 | 71 | 2.0 | 2.0 | 0.00 | 0.00 | 0.00 | 45 | 1013.3 |
| 20260503002511 | 75 | 90 | 0.0 | 0.0 | 0.00 | 0.00 | 0.00 | 45 | 1013.7 |
| 20260503002008 | 76 | 71 | 2.0 | 2.0 | 0.00 | 0.00 | 0.00 | 44 | 1013.3 |
| 20260503001504 | 74 | 35 | 2.0 | 2.0 | 0.00 | 0.00 | 0.00 | 45 | 1013.3 |
| 20260503001002 | 74 | 38 | 4.0 | 4.0 | 0.00 | 0.00 | 0.00 | 45 | 1013.7 |
| 20260503000459 | 74 | 35 | 6.0 | 7.0 | 0.00 | 0.00 | 0.00 | 46 | 1013.7 |
| 20260502235956 | 74 | 30 | 2.0 | 2.0 | 0.00 | 0.00 | 0.00 | 47 | 1013.7 |
| 20260502235453 | 74 | 48 | 1.0 | 1.0 | 0.00 | 0.00 | 0.00 | 47 | 1013.7 |
| 20260502234950 | 74 | 54 | 2.0 | 2.0 | 0.00 | 0.00 | 0.00 | 47 | 1014.0 |
| 20260502234446 | 73 | 65 | 3.0 | 3.0 | 0.00 | 0.00 | 0.00 | 48 | 1013.7 |
| 20260502233944 | 72 | 24 | 2.0 | 2.0 | 0.00 | 0.00 | 0.00 | 49 | 1014.0 |
| 20260502233439 | 72 | 17 | 4.0 | 5.0 | 0.00 | 0.00 | 0.00 | 48 | 1014.0 |
| 20260502232936 | 71 | 323 | 4.0 | 4.0 | 0.00 | 0.00 | 0.00 | 49 | 1014.0 |
| 20260502232432 | 73 | 300 | 5.0 | 5.0 | 0.00 | 0.00 | 0.00 | 47 | 1014.0 |
| 20260502231929 | 73 | 324 | 3.0 | 4.0 | 0.00 | 0.00 | 0.00 | 47 | 1014.4 |
| 20260502231426 | 73 | 309 | 6.0 | 7.0 | 0.00 | 0.00 | 0.00 | 47 | 1014.4 |
| 20260502230925 | 73 | 332 | 5.0 | 6.0 | 0.00 | 0.00 | 0.00 | 44 | 1014.4 |
| 20260502230422 | 73 | 342 | 9.0 | 10.0 | 0.00 | 0.00 | 0.00 | 46 | 1014.4 |
| 20260502225921 | 73 | 24 | 8.0 | 9.0 | 0.00 | 0.00 | 0.00 | 45 | 1014.7 |
| 20260502225416 | 72 | 324 | 7.0 | 7.0 | 0.00 | 0.00 | 0.00 | 45 | 1014.7 |
| 20260502224913 | 73 | 342 | 4.0 | 4.0 | 0.00 | 0.00 | 0.00 | 45 | 1014.7 |
| 20260502224408 | 72 | 354 | 6.0 | 6.0 | 0.00 | 0.00 | 0.00 | 46 | 1015.0 |
| 20260502223906 | 72 | 332 | 4.0 | 4.0 | 0.00 | 0.00 | 0.00 | 49 | 1015.0 |
| 20260502223404 | 72 | 174 | 2.0 | 2.0 | 0.00 | 0.00 | 0.00 | 48 | 1014.7 |
| 20260502222902 | 72 | 39 | 5.0 | 6.0 | 0.00 | 0.00 | 0.00 | 49 | 1015.0 |
| 20260502222359 | 71 | 84 | 3.0 | 4.0 | 0.00 | 0.00 | 0.00 | 49 | 1015.0 |
| 20260502221855 | 72 | 17 | 7.0 | 8.0 | 0.00 | 0.00 | 0.00 | 48 | 1015.0 |
| 20260502221352 | 72 | 287 | 3.0 | 4.0 | 0.00 | 0.00 | 0.00 | 50 | 1015.4 |
| 20260502220849 | 72 | 324 | 6.0 | 7.0 | 0.00 | 0.00 | 0.00 | 50 | 1015.4 |
| 20260502220344 | 72 | 39 | 4.0 | 5.0 | 0.00 | 0.00 | 0.00 | 50 | 1015.0 |
| 20260502215841 | 71 | 6 | 6.0 | 7.0 | 0.00 | 0.00 | 0.00 | 51 | 1015.4 |
| 20260502215339 | 70 | 342 | 4.0 | 4.0 | 0.00 | 0.00 | 0.00 | 55 | 1015.4 |